TimePDT,TemperatureF,Dew PointF,Humidity,Sea Level PressureIn,VisibilityMPH,Wind Direction,Wind SpeedMPH,Gust SpeedMPH,PrecipitationIn,Events,Conditions,WindDirDegrees,DateUTC
12:53 AM,55.9,39.0,53,30.09,10.0,South,11.5,-,N/A,,Clear,190,2013-06-12 07:53:00
1:53 AM,55.9,39.0,53,30.09,10.0,South,8.1,-,N/A,,Clear,190,2013-06-12 08:53:00
2:53 AM,55.0,39.9,57,30.07,10.0,SSW,6.9,-,N/A,,Clear,210,2013-06-12 09:53:00
3:53 AM,54.0,39.9,59,30.08,10.0,South,8.1,-,N/A,,Clear,190,2013-06-12 10:53:00
4:53 AM,52.0,39.9,63,30.09,10.0,South,5.8,-,N/A,,Clear,180,2013-06-12 11:53:00
5:53 AM,51.1,39.0,63,30.10,10.0,SSW,9.2,-,N/A,,Clear,200,2013-06-12 12:53:00
6:53 AM,53.1,39.0,59,30.10,10.0,SSW,13.8,-,N/A,,Clear,200,2013-06-12 13:53:00
7:53 AM,57.0,39.0,51,30.10,10.0,South,15.0,-,N/A,,Clear,190,2013-06-12 14:53:00
8:53 AM,60.1,37.9,44,30.10,10.0,SSW,15.0,20.7,N/A,,Clear,210,2013-06-12 15:53:00
9:53 AM,62.1,39.0,43,30.09,10.0,SSW,11.5,19.6,N/A,,Clear,200,2013-06-12 16:53:00
10:53 AM,63.0,37.9,40,30.10,10.0,WSW,13.8,19.6,N/A,,Partly Cloudy,240,2013-06-12 17:53:00
11:53 AM,64.0,36.0,35,30.09,10.0,SW,11.5,18.4,N/A,,Scattered Clouds,230,2013-06-12 18:53:00
12:53 PM,66.9,37.9,34,30.08,10.0,West,12.7,24.2,N/A,,Clear,260,2013-06-12 19:53:00
1:53 PM,66.9,37.0,33,30.07,10.0,WSW,10.4,19.6,N/A,,Partly Cloudy,240,2013-06-12 20:53:00
2:53 PM,69.1,36.0,30,30.05,10.0,WSW,10.4,19.6,N/A,,Clear,250,2013-06-12 21:53:00
3:53 PM,71.1,35.1,27,30.03,10.0,SW,9.2,19.6,N/A,,Clear,230,2013-06-12 22:53:00
4:53 PM,70.0,34.0,27,30.02,10.0,South,5.8,-,N/A,,Clear,190,2013-06-12 23:53:00
5:53 PM,71.1,34.0,26,30.01,10.0,WSW,8.1,19.6,N/A,,Clear,240,2013-06-13 00:53:00
6:53 PM,70.0,34.0,27,30.00,10.0,West,11.5,-,N/A,,Clear,270,2013-06-13 01:53:00
7:53 PM,69.1,34.0,27,30.00,10.0,West,5.8,-,N/A,,Clear,260,2013-06-13 02:53:00
8:53 PM,64.0,35.1,34,30.02,10.0,South,4.6,-,N/A,,Clear,190,2013-06-13 03:53:00
9:53 PM,62.1,37.9,41,30.03,10.0,SSE,6.9,-,N/A,,Clear,150,2013-06-13 04:53:00
10:53 PM,59.0,37.0,44,30.05,10.0,South,11.5,-,N/A,,Clear,170,2013-06-13 05:53:00
11:53 PM,57.0,39.0,51,30.06,10.0,South,13.8,-,N/A,,Clear,180,2013-06-13 06:53:00